This is the latest recevied weather packets stored in our database for station/object CE3MXM-12. If no packets are shown the sender has not sent any weather packets the latest 10 day(s).
| Time | Temp. | Humidity | Pressure | Rain* | Wind** | Luminosity | Snow |
|---|---|---|---|---|---|---|---|
| 1777580292 | 16.67° C | 64% | 1012.5 hPa | - | - | - | - |
| 1777579992 | 16.67° C | 64% | 1012.5 hPa | - | - | - | - |
| 1777579692 | 16.67° C | 63% | 1012.4 hPa | - | - | - | - |
| 1777579393 | 17.22° C | 63% | 1012.7 hPa | - | - | - | - |
| 1777579092 | 17.22° C | 62% | 1012.5 hPa | - | - | - | - |
| 1777578792 | 17.22° C | 63% | 1012.4 hPa | - | - | - | - |
| 1777578492 | 17.22° C | 63% | 1012.5 hPa | - | - | - | - |
| 1777578192 | 17.22° C | 62% | 1012.5 hPa | - | - | - | - |
| 1777577892 | 17.22° C | 63% | 1012.5 hPa | - | - | - | - |
| 1777577592 | 17.22° C | 63% | 1012.3 hPa | - | - | - | - |
| 1777577291 | 17.22° C | 63% | 1012.5 hPa | - | - | - | - |
| 1777576992 | 17.22° C | 63% | 1012.4 hPa | - | - | - | - |
| 1777576691 | 17.78° C | 63% | 1012.4 hPa | - | - | - | - |
| 1777576391 | 17.22° C | 65% | 1012.4 hPa | - | - | - | - |
| 1777576091 | 17.22° C | 66% | 1012.2 hPa | - | - | - | - |
| 1777575791 | 16.67° C | 66% | 1012.3 hPa | - | - | - | - |
| 1777575491 | 17.22° C | 65% | 1012.4 hPa | - | - | - | - |
| 1777575191 | 16.67° C | 67% | 1012.5 hPa | - | - | - | - |
| 1777574891 | 17.22° C | 65% | 1012.4 hPa | - | - | - | - |
| 1777574590 | 16.67° C | 68% | 1012.3 hPa | - | - | - | - |
| 1777574291 | 16.67° C | 68% | 1012.4 hPa | - | - | - | - |
| 1777573991 | 16.67° C | 68% | 1012.4 hPa | - | - | - | - |
| 1777573690 | 16.67° C | 68% | 1012.4 hPa | - | - | - | - |
| 1777573390 | 16.67° C | 69% | 1012.4 hPa | - | - | - | - |
| 1777573090 | 16.67° C | 68% | 1012.4 hPa | - | - | - | - |
* Rain since midnight (hover to see other rain measurements)
** Current wind speed in m/s (hover to see current wind gust speed)